Regional Weather Roundup
Issued by NWS

Home | Current Version | Previous Version | Text Only | Print | Product List | Glossary Off
Versions: 1 2 3 4 5 6 7 8 9 10 11 12 13 14 15 16 17 18 19 20 21 22 23 24 25 26 27 28 29 30 31 32 33 34 35 36 37 38 39 40 41 42 43 44 45 46 47 48 49 50

000
ASUS43 KTOP 201859
RWRKS

WEATHER ROUNDUP FOR KANSAS
NATIONAL WEATHER SERVICE GOODLAND KS
100 PM CST MON FEB 20 2017

NOTE:  "FAIR" INDICATES FEW OR NO CLOUDS BELOW 12,000 FEET WITH NO
SIGNIFICANT WEATHER AND/OR OBSTRUCTIONS TO VISIBILITY.

KSZ001>006-013>018-027>032-041>047-202000-
NORTHWEST KANSAS

CITY           SKY/WX    TMP DP  RH WIND       PRES   REMARKS
GOODLAND       SUNNY     60  21  22 NW29G39   29.94S
HAYS           SUNNY     66  33  29 NW21G26   29.82F
HILL CITY      SUNNY     64  38  38 N30G38    29.85S
RUSSELL        SUNNY     67  31  26 NW18G26   29.80S
$$

KSZ061>065-074>080-084>089-202000-
SOUTHWEST KANSAS

CITY           SKY/WX    TMP DP  RH WIND       PRES   REMARKS
DODGE CITY     SUNNY     66  19  16 N21G35    29.88F
ELKHART          N/A     63  16  16 N21         N/A
GARDEN CITY    SUNNY     65  13  13 N30G38    29.91F
GREAT BEND     SUNNY     67  31  26 NW17      29.83S
LIBERAL        SUNNY     66  19  16 N24G37    29.94F
$$

KSZ066>073-081>083-090>101-202000-
SOUTHEAST KANSAS

CITY           SKY/WX    TMP DP  RH WIND       PRES   REMARKS
CHANUTE        CLOUDY    63  54  72 SW13      29.88S
COFFEYVILLE    CLOUDY    64  56  75 SW12      29.89F
HUTCHINSON     CLOUDY    61  50  67 S9        29.83F
MEDICINE LODGE   N/A     66  41  40 W9        29.82F
NEWTON         PTSUNNY   57  52  83 SW17      29.84F
PARSONS        CLOUDY    63  56  78 SW10      29.90R
WICHITA INTL   PTSUNNY   58  53  84 S13       29.83F
WICHITA JABRA  PTSUNNY   58  52  80 SW10      29.83F
WINFIELD       CLOUDY    59  54  83 S13       29.86F
$$

KSZ007>012-019>026-033>040-048>060-102>105-202000-
NORTHEAST KANSAS

CITY           SKY/WX    TMP DP  RH WIND       PRES   REMARKS
CONCORDIA      CLOUDY    60  49  66 SW12      29.78S
EMPORIA        CLOUDY    60  54  80 S16       29.83F
LAWRENCE       CLOUDY    67  55  65 SW14      29.82F
MANHATTAN      CLOUDY    61  54  77 SW17      29.79F
OLATHE IND     PTSUNNY   67  55  65 SW17      29.84F
OLATHE EXE     PTSUNNY   66  57  72 SW15G21   29.84F
SALINA         CLOUDY    63  50  62 SW10      29.80F
TOPEKA BILLARD CLOUDY    63  56  78 S12G21    29.81F
TOPEKA FORBES  CLOUDY    64  56  75 SW21      29.81F
$$



USA.gov is the U.S. government's official web portal to all federal, state and local government web resources and services.